Weather History for KRKD - September, 2013

Change the Weather History Date:

Thursday, September 26, 2013

  Actual Average (KAUG) Record (KAUG)
Temperature  
Mean Temperature 54 °F 56 °F  
Max Temperature 62 °F 65 °F 91 °F (2007)
Min Temperature 46 °F 47 °F 41 °F (1996)
Degree Days  
Heating Degree Days 11 9  
Month to date heating degree days 137  
Since 1 July heating degree days 179  
Cooling Degree Days 0 0  
Month to date cooling degree days 27  
Year to date cooling degree days 384  
Growing Degree Days 4 (Base 50)    
Moisture  
Dew Point 47 °F    
Average Humidity 73    
Maximum Humidity 93    
Minimum Humidity 55    
Precipitation  
Precipitation 0.00 in 0.13 in 0.81 in (2008)
Month to date precipitation 3.17  
Year to date precipitation 29.35  
Sea Level Pressure  
Sea Level Pressure 30.03 in    
Wind  
Wind Speed 5 mph (NNW)    
Max Wind Speed 13 mph    
Max Gust Speed 21 mph    
Visibility 10 miles    
Events      
T = Trace of Precipitation, MM = Missing Value Source: NWS Daily Summary

Daily Weather History Graph

Daily Weather History Graph

Search for Another Location

Airport or City:

Trip Planner

Search our weather history database for the weather conditions in past years. The results will help you decide how hot, cold, wet, or windy it might be!

Date:

Astronomy

Sep. 26, 2013 Rise Set
Actual Time 6:28 AM EDT 6:26 PM EDT
Civil Twilight 5:59 AM EDT 6:54 PM EDT
Nautical Twilight 5:25 AM EDT 7:28 PM EDT
Astronomical Twilight 4:51 AM EDT 8:02 PM EDT
Moon 11:10 PM EDT (9/26) 1:28 PM EDT (9/26)
Length of Visible Light 12h 55m
Length of Day
11h 57m
Waning Gibbous, 55% of the Moon is Illuminated
Sep 26
Waning Gibbous
Sep 26
Last Quarter
Oct 4
New
Oct 11
First Quarter
Oct 18
Full

Hourly Weather History & Observations

Time (EDT) Temp. Windchill Dew Point Humidity Pressure Visibility Wind Dir Wind Speed Gust Speed Precip Events Conditions
12:15 AM 48.2 °F - 44.6 °F 87% 29.96 in 10.0 mi West 4.6 mph - N/A   Clear
12:35 AM 46.4 °F 44.3 °F 44.6 °F 93% 29.97 in 10.0 mi West 4.6 mph - N/A   Mostly Cloudy
12:55 AM 48.2 °F - 44.6 °F 87% 29.98 in 10.0 mi West 4.6 mph - N/A   Overcast
1:15 AM 48.2 °F - 44.6 °F 87% 29.98 in 10.0 mi Calm Calm - N/A   Mostly Cloudy
1:35 AM 48.2 °F - 44.6 °F 87% 29.98 in 10.0 mi NW 3.5 mph - N/A   Mostly Cloudy
1:55 AM 50.0 °F - 44.6 °F 82% 29.98 in 10.0 mi NW 3.5 mph - N/A   Overcast
2:15 AM 48.2 °F - 44.6 °F 87% 29.98 in 10.0 mi WNW 4.6 mph - N/A   Scattered Clouds
2:55 AM 48.2 °F - 44.6 °F 87% 29.98 in 10.0 mi NW 5.8 mph - N/A   Clear
3:15 AM 48.2 °F - 44.6 °F 87% 29.98 in 10.0 mi NW 3.5 mph - N/A   Clear
3:35 AM 48.2 °F - 44.6 °F 87% 29.98 in 10.0 mi NW 3.5 mph - N/A   Clear
3:55 AM 48.2 °F - 44.6 °F 87% 29.98 in 10.0 mi NNW 3.5 mph - N/A   Clear
4:15 AM 51.8 °F - 46.4 °F 82% 29.98 in 10.0 mi NNW 4.6 mph - N/A   Mostly Cloudy
4:35 AM 51.8 °F - 44.6 °F 76% 29.99 in 10.0 mi West 4.6 mph - N/A   Overcast
4:55 AM 48.2 °F - 44.6 °F 87% 29.99 in 10.0 mi WNW 4.6 mph - N/A   Overcast
5:15 AM 48.2 °F - 44.6 °F 87% 29.99 in 10.0 mi West 5.8 mph - N/A   Overcast
5:35 AM 48.2 °F - 44.6 °F 87% 29.99 in 10.0 mi Calm Calm - N/A   Overcast
5:55 AM 48.2 °F - 44.6 °F 87% 30.00 in 10.0 mi WNW 4.6 mph - N/A   Overcast
6:15 AM 48.2 °F - 44.6 °F 87% 30.00 in 10.0 mi WNW 5.8 mph - N/A   Overcast
6:35 AM 48.2 °F - 44.6 °F 87% 30.01 in 10.0 mi WNW 5.8 mph - N/A   Overcast
6:55 AM 48.2 °F - 46.4 °F 93% 30.01 in 10.0 mi WNW 4.6 mph - N/A   Overcast
7:15 AM 48.2 °F - 44.6 °F 87% 30.01 in 10.0 mi Calm Calm - N/A   Overcast
7:35 AM 51.8 °F - 46.4 °F 82% 30.01 in 10.0 mi NW 3.5 mph - N/A   Overcast
7:55 AM 53.6 °F - 46.4 °F 77% 30.01 in 10.0 mi NNW 3.5 mph - N/A   Mostly Cloudy
8:15 AM 55.4 °F - 46.4 °F 72% 30.01 in 10.0 mi North 5.8 mph - N/A   Clear
8:35 AM 55.4 °F - 46.4 °F 72% 30.02 in 10.0 mi NNW 3.5 mph - N/A   Clear
8:55 AM 55.4 °F - 46.4 °F 72% 30.02 in 10.0 mi NNE 4.6 mph 16.1 mph N/A   Partly Cloudy
9:15 AM 55.4 °F - 46.4 °F 72% 30.03 in 10.0 mi North 8.1 mph - N/A   Partly Cloudy
9:35 AM 57.2 °F - 46.4 °F 67% 30.03 in 10.0 mi North 9.2 mph - N/A   Mostly Cloudy
10:15 AM 57.2 °F - 46.4 °F 67% 30.04 in 10.0 mi NNE 12.7 mph 20.7 mph N/A   Mostly Cloudy
10:35 AM 59.0 °F - 48.2 °F 67% 30.03 in 10.0 mi North 9.2 mph 17.3 mph N/A   Mostly Cloudy
10:55 AM 59.0 °F - 46.4 °F 63% 30.03 in 10.0 mi North 4.6 mph - N/A   Partly Cloudy
11:15 AM 60.8 °F - 48.2 °F 63% 30.02 in 10.0 mi North 6.9 mph - N/A   Partly Cloudy
11:35 AM 60.8 °F - 48.2 °F 63% 30.02 in 10.0 mi North 8.1 mph - N/A   Partly Cloudy
11:55 AM 60.8 °F - 46.4 °F 59% 30.02 in 10.0 mi North 8.1 mph 16.1 mph N/A   Partly Cloudy
12:15 PM 60.8 °F - 46.4 °F 59% 30.03 in 10.0 mi North 4.6 mph - N/A   Mostly Cloudy
12:35 PM 60.8 °F - 48.2 °F 63% 30.02 in 10.0 mi NNE 9.2 mph 17.3 mph N/A   Overcast
12:55 PM 62.6 °F - 46.4 °F 55% 30.01 in 10.0 mi North 6.9 mph 18.4 mph N/A   Mostly Cloudy
1:15 PM 62.6 °F - 46.4 °F 55% 30.02 in 10.0 mi North 10.4 mph 17.3 mph N/A   Mostly Cloudy
1:35 PM 62.6 °F - 48.2 °F 59% 30.02 in 10.0 mi North 4.6 mph 16.1 mph N/A   Mostly Cloudy
1:55 PM 62.6 °F - 48.2 °F 59% 30.03 in 10.0 mi North 9.2 mph - N/A   Mostly Cloudy
2:15 PM 62.6 °F - 48.2 °F 59% 30.02 in 10.0 mi North 6.9 mph - N/A   Overcast
2:35 PM 62.6 °F - 48.2 °F 59% 30.02 in 10.0 mi North 5.8 mph - N/A   Overcast
2:55 PM 62.6 °F - 48.2 °F 59% 30.02 in 10.0 mi North 4.6 mph - N/A   Overcast
3:15 PM 62.6 °F - 48.2 °F 59% 30.02 in 10.0 mi North 8.1 mph - N/A   Mostly Cloudy
3:35 PM 62.6 °F - 48.2 °F 59% 30.02 in 10.0 mi NNE 6.9 mph - N/A   Overcast
3:55 PM 62.6 °F - 46.4 °F 55% 30.02 in 10.0 mi North 3.5 mph - N/A   Overcast
4:15 PM 60.8 °F - 50.0 °F 68% 30.03 in 10.0 mi NE 4.6 mph - N/A   Overcast
4:35 PM 60.8 °F - 50.0 °F 68% 30.03 in 10.0 mi Calm Calm - N/A   Overcast
4:55 PM 60.8 °F - 50.0 °F 68% 30.04 in 10.0 mi North 3.5 mph - N/A   Overcast
5:15 PM 60.8 °F - 50.0 °F 68% 30.05 in 10.0 mi NNW 4.6 mph - N/A   Overcast
5:35 PM 60.8 °F - 48.2 °F 63% 30.05 in 10.0 mi North 6.9 mph - N/A   Overcast
5:55 PM 60.8 °F - 48.2 °F 63% 30.06 in 10.0 mi NNE 3.5 mph - N/A   Overcast
6:15 PM 60.8 °F - 48.2 °F 63% 30.07 in 10.0 mi NNE 4.6 mph - N/A   Overcast
6:35 PM 59.0 °F - 50.0 °F 72% 30.07 in 10.0 mi NNE 9.2 mph - N/A   Overcast
6:55 PM 57.2 °F - 50.0 °F 77% 30.08 in 10.0 mi NNE 6.9 mph - N/A   Overcast
7:15 PM 57.2 °F - 48.2 °F 72% 30.09 in 10.0 mi North 6.9 mph - N/A   Overcast
7:35 PM 57.2 °F - 48.2 °F 72% 30.09 in 10.0 mi North 5.8 mph - N/A   Overcast
7:55 PM 57.2 °F - 48.2 °F 72% 30.09 in 10.0 mi North 4.6 mph - N/A   Overcast
8:15 PM 57.2 °F - 48.2 °F 72% 30.10 in 10.0 mi North 4.6 mph - N/A   Overcast
8:35 PM 57.2 °F - 48.2 °F 72% 30.10 in 10.0 mi North 3.5 mph - N/A   Overcast
8:55 PM 57.2 °F - 48.2 °F 72% 30.11 in 10.0 mi North 5.8 mph - N/A   Overcast
9:15 PM 57.2 °F - 48.2 °F 72% 30.11 in 10.0 mi NNW 4.6 mph - N/A   Overcast
9:35 PM 57.2 °F - 48.2 °F 72% 30.11 in 10.0 mi NNW 4.6 mph - N/A   Overcast
9:55 PM 57.2 °F - 48.2 °F 72% 30.11 in 10.0 mi Calm Calm - N/A   Overcast
10:15 PM 57.2 °F - 48.2 °F 72% 30.11 in 10.0 mi North 3.5 mph - N/A   Overcast
10:35 PM 57.2 °F - 48.2 °F 72% 30.11 in 10.0 mi North 4.6 mph - N/A   Overcast
10:55 PM 57.2 °F - 48.2 °F 72% 30.11 in 10.0 mi NNW 5.8 mph - N/A   Overcast
11:15 PM 57.2 °F - 48.2 °F 72% 30.12 in 10.0 mi North 6.9 mph - N/A   Overcast
11:35 PM 57.2 °F - 48.2 °F 72% 30.12 in 10.0 mi North 5.8 mph - N/A   Overcast
11:55 PM 57.2 °F - 48.2 °F 72% 30.12 in 10.0 mi North 4.6 mph - N/A   Overcast